Regional Weather Roundup
Issued by NWS

Home | Current Version | Previous Version | Graphics & Text | Print | Product List | Glossary On
Versions: 1 2 3 4 5 6 7 8 9 10 11 12 13 14 15 16 17 18 19 20 21 22 23 24 25 26 27 28 29 30 31 32 33 34 35 36 37 38 39 40 41 42 43 44 45 46 47 48 49 50
000
ASUS44 KMEG 260800
RWRTN
TENNESSEE HOURLY STATE WEATHER ROUNDUP
NATIONAL WEATHER SERVICE MEMPHIS TN
300 AM CDT TUE MAY 26 2015

TNZ002-004-019-021-049-052-054-088>092-260900-
WEST TENNESSEE

CITY           SKY/WX    TMP DP  RH WIND       PRES   REMARKS
MEMPHIS INTL   LGT RAIN  74  68  81 S14G21    29.95S
NWS MEMPHIS      N/A     73 N/A N/A MISG        N/A
JACKSON        CLOUDY    70  64  81 VRB7G17   30.00S
DYERSBURG      CLOUDY    72  55  56 S8        29.97F
PARIS          PTCLDY    66  66 100 S9        30.02F
LEXINGTON      CLEAR     68  64  88 SE5       30.03S
$$

TNZ008-025-027-028-033-062-065-066-260900-
NORTH MIDDLE TENNESSEE

CITY           SKY/WX    TMP DP  RH WIND       PRES   REMARKS
NASHVILLE      MOCLDY    67  64  90 S7        30.09F
CLARKSVILLE    MOCLDY    67  65  93 S6        30.06S
COOKEVILLE     CLEAR     66  64  94 S7        30.13F
CROSSVILLE     MOCLDY    67  63  87 S6        30.19S
$$

TNZ061-075-076-078-094-096-097-260900-
SOUTH MIDDLE TENNESSEE

CITY           SKY/WX    TMP DP  RH WIND       PRES   REMARKS
FAYETTEVILLE   CLEAR    N/A N/A N/A MISG      30.12F
TULLAHOMA      CLEAR     64  63  94 CALM      30.14S
WINCHESTER     CLEAR     66  64  94 E7        30.14S
MCMINNVILLE    CLEAR     64  64 100 CALM      30.14S
COLUMBIA       CLEAR     66  64  94 S5        30.08S
SHELBYVILLE    CLEAR     66  66 100 SE6       30.12F
$$

TNZ017-018-042-046-047-260900-
NORTHEAST TENNESSEE

CITY           SKY/WX    TMP DP  RH WIND       PRES   REMARKS
TRI CITIES     CLOUDY    67  61  81 CALM      30.22S
ELIZABETHTON   DRIZZLE   63  61  94 CALM      30.23S
$$

TNZ012-013-036-069-073-074-260900-
CENTRAL EAST TENNESSEE

CITY           SKY/WX    TMP DP  RH WIND       PRES   REMARKS
KNOXVILLE      MOCLDY    65  64  97 NE3       30.17F
OAK RIDGE      MOCLDY    68  65  90 CALM      30.19F
GATLINBURG     PTSUNNY   64  64 100 CALM      30.18F
$$

TNZ083-085-099-260900-
SOUTHEAST TENNESSEE

CITY           SKY/WX    TMP DP  RH WIND       PRES   REMARKS
CHATTANOOGA    CLOUDY    68  66  93 CALM      30.16F
$$

SKY/WX REPORTED AS FAIR MEANS FEW OR NO CLOUDS BELOW
12 THOUSAND FEET.




USA.gov is the U.S. government's official web portal to all federal, state and local government web resources and services.